Appleton, MN

2:46 PM CDT on October 22, 2017 (GMT -0500)
Appleton Municipal

Weather History for KAQP - July, 2013

Change the Weather History Date:

Monday, July 8, 2013

  Actual Average Record
Temperature  
Mean Temperature 76 °F -  
Max Temperature 89 °F 79 °F 95 °F (2000)
Min Temperature 62 °F 59 °F 46 °F (2004)
Cooling Degree Days 10    
Growing Degree Days 26 (Base 50)    
Moisture  
Dew Point 62 °F    
Average Humidity 65    
Maximum Humidity 94    
Minimum Humidity 40    
Precipitation  
Precipitation 0.00 in - - ()
Sea Level Pressure  
Sea Level Pressure 29.96 in    
Wind  
Wind Speed 3 mph (East)    
Max Wind Speed 9 mph    
Max Gust Speed -    
Visibility 10 miles    
Events      
Averages and records for this station are not official NWS values.
T = Trace of Precipitation, MM = Missing Value Source: NWS Daily Summary

Daily Weather History Graph

Daily Weather History Graph

Search for Another Location

Airport or City:

Trip Planner

Search our weather history database for the weather conditions in past years. The results will help you decide how hot, cold, wet, or windy it might be!

Date:

Astronomy

Jul. 08, 2013 Rise Set
Actual Time 5:45 AM CDT 9:12 PM CDT
Civil Twilight 5:08 AM CDT 9:49 PM CDT
Nautical Twilight 4:19 AM CDT 10:37 PM CDT
Astronomical Twilight 3:17 AM CDT 11:39 PM CDT
Moon 6:19 AM CDT (7/8) 9:10 PM CDT (7/8)
Length of Visible Light 16h 41m
Length of Day
15h 27m
New Moon, 0% of the Moon is Illuminated
Jul 8
New Moon
Jul 15
First Quarter
Jul 22
Full
Jul 29
Last Quarter
Aug 6
New

Hourly Weather History & Observations

Time (CDT) Temp. Heat Index Dew Point Humidity Pressure Visibility Wind Dir Wind Speed Gust Speed Precip Events Conditions
12:13 AM 69.8 °F - 60.8 °F 73% 29.95 in 10.0 mi North 5.8 mph - N/A   Clear
12:33 AM - - 60.8 °F N/A% 29.95 in 10.0 mi Calm Calm - N/A   Clear
12:53 AM 66.2 °F - 60.8 °F 83% 29.96 in 10.0 mi North - - N/A   Clear
1:13 AM 64.4 °F - 60.8 °F 88% 29.96 in 10.0 mi WNW 4.6 mph - N/A   Clear
1:33 AM 64.4 °F - 60.8 °F 88% 29.97 in 10.0 mi North - - N/A   Clear
1:53 AM 64.4 °F - 60.8 °F 88% 29.96 in 10.0 mi West 4.6 mph - N/A   Clear
2:13 AM 64.4 °F - 60.8 °F 88% 29.96 in 10.0 mi West 3.5 mph - N/A   Clear
2:34 AM 62.6 °F - 60.8 °F 94% 29.96 in 1.0 mi Calm Calm - N/A   Clear
2:53 AM 62.6 °F - 60.8 °F 94% 29.96 in 10.0 mi NW 3.5 mph - N/A   Clear
3:13 AM 64.4 °F - 60.8 °F 88% 29.96 in 10.0 mi Calm Calm - N/A   Clear
3:33 AM 62.6 °F - 59.0 °F 88% 29.96 in 10.0 mi Calm Calm - N/A   Clear
3:48 AM 62.6 °F - 59.0 °F 88% 29.96 in 10.0 mi Calm Calm - N/A   Clear
3:55 AM 62.6 °F - 59.0 °F 88% 29.96 in 10.0 mi Calm Calm - N/A   Clear
4:14 AM 62.6 °F - 59.0 °F 88% 29.95 in 10.0 mi Calm Calm - N/A   Clear
4:34 AM 62.6 °F - 59.0 °F 88% 29.96 in 10.0 mi NNW 3.5 mph - N/A   Clear
4:53 AM 62.6 °F - 59.0 °F 88% 29.96 in 10.0 mi North 3.5 mph - N/A   Clear
5:13 AM 62.6 °F - 57.2 °F 82% 29.96 in 10.0 mi Calm Calm - N/A   Clear
5:34 AM 62.6 °F - 59.0 °F 88% 29.95 in 10.0 mi NNE 3.5 mph - N/A   Clear
5:54 AM 62.6 °F - 57.2 °F 82% 29.95 in 10.0 mi NNE 3.5 mph - N/A   Clear
6:13 AM 62.6 °F - 59.0 °F 88% 29.95 in 10.0 mi Calm Calm - N/A   Clear
6:33 AM 64.4 °F - 59.0 °F 83% 29.95 in 10.0 mi Calm Calm - N/A   Clear
6:54 AM 64.4 °F - 60.8 °F 88% 29.96 in 10.0 mi North 3.5 mph - N/A   Clear
7:13 AM 66.2 °F - 60.8 °F 83% 29.97 in 10.0 mi Calm Calm - N/A   Clear
7:33 AM 69.8 °F - 62.6 °F 78% 29.98 in 10.0 mi Calm Calm - N/A   Clear
7:53 AM 71.6 °F - 62.6 °F 73% 29.99 in 10.0 mi Calm Calm - N/A   Clear
8:14 AM 73.4 °F - 62.6 °F 69% 29.99 in 10.0 mi Calm Calm - N/A   Clear
8:33 AM 75.2 °F - 62.6 °F 65% 30.00 in 10.0 mi NE 4.6 mph - N/A   Clear
8:53 AM 75.2 °F - 62.6 °F 65% 30.01 in 10.0 mi NE 3.5 mph - N/A   Clear
9:13 AM 75.2 °F - 62.6 °F 65% 30.00 in 10.0 mi NE 4.6 mph - N/A   Clear
9:33 AM 77.0 °F - 62.6 °F 61% 30.01 in 10.0 mi NE 5.8 mph - N/A   Clear
9:53 AM 78.8 °F - 62.6 °F 57% 30.00 in 10.0 mi ENE 9.2 mph - N/A   Clear
10:13 AM 78.8 °F - 62.6 °F 57% 30.00 in 10.0 mi East 6.9 mph - N/A   Clear
10:33 AM 78.8 °F - 62.6 °F 57% 30.00 in 10.0 mi East 6.9 mph - N/A   Clear
10:53 AM 80.6 °F 82.3 °F 64.4 °F 58% 30.00 in 10.0 mi ENE 5.8 mph - N/A   Clear
11:13 AM 80.6 °F 81.8 °F 62.6 °F 54% 29.99 in 10.0 mi East 5.8 mph - N/A   Clear
11:33 AM 82.4 °F 83.4 °F 62.6 °F 51% 30.00 in 10.0 mi ESE 9.2 mph - N/A   Clear
11:53 AM 82.4 °F 82.5 °F 59.0 °F 45% 30.00 in 10.0 mi East 6.9 mph - N/A   Clear
12:13 PM 82.4 °F 82.5 °F 59.0 °F 45% 30.00 in 10.0 mi East 5.8 mph - N/A   Clear
12:33 PM 84.2 °F 83.8 °F 59.0 °F 42% 30.00 in 10.0 mi NE 3.5 mph - N/A   Clear
12:53 PM 84.2 °F 83.5 °F 57.2 °F 40% 29.99 in 10.0 mi ESE 4.6 mph - N/A   Clear
1:13 PM 84.2 °F 83.8 °F 59.0 °F 42% 29.99 in 10.0 mi ESE 8.1 mph - N/A   Clear
1:33 PM 84.2 °F 84.4 °F 60.8 °F 45% 29.99 in 10.0 mi SE 5.8 mph - N/A   Clear
1:53 PM 86.0 °F 86.1 °F 60.8 °F 43% 29.99 in 10.0 mi ESE 5.8 mph - N/A   Clear
2:14 PM 84.2 °F 84.4 °F 60.8 °F 45% 29.98 in 10.0 mi ESE 6.9 mph - N/A   Clear
2:33 PM 86.0 °F 85.4 °F 59.0 °F 40% 29.97 in 10.0 mi SSE 4.6 mph - N/A   Clear
2:53 PM 86.0 °F 86.6 °F 62.6 °F 45% 29.97 in 10.0 mi South 3.5 mph - N/A   Clear
3:13 PM 87.8 °F 87.6 °F 60.8 °F 40% 29.96 in 10.0 mi South 4.6 mph - N/A   Clear
3:33 PM 87.8 °F 88.5 °F 62.6 °F 43% 29.96 in 10.0 mi South 3.5 mph - N/A   Clear
3:53 PM 87.8 °F 88.5 °F 62.6 °F 43% 29.96 in 10.0 mi Calm Calm - N/A   Clear
4:13 PM 87.8 °F 88.5 °F 62.6 °F 43% 29.96 in 10.0 mi Calm Calm - N/A   Clear
4:33 PM 89.6 °F 90.1 °F 62.6 °F 40% 29.96 in 10.0 mi Calm Calm - N/A   Clear
4:53 PM 89.6 °F 90.1 °F 62.6 °F 40% 29.96 in 10.0 mi Calm Calm - N/A   Clear
5:13 PM 87.8 °F 88.5 °F 62.6 °F 43% 29.95 in 10.0 mi Calm Calm - N/A   Clear
5:33 PM 87.8 °F 88.5 °F 62.6 °F 43% 29.95 in 10.0 mi Calm Calm - N/A   Clear
5:53 PM 86.0 °F 87.3 °F 64.4 °F 48% 29.95 in 10.0 mi Calm Calm - N/A   Clear
6:13 PM 84.2 °F 86.6 °F 66.2 °F 55% 29.94 in 10.0 mi Calm Calm - N/A   Clear
6:33 PM 87.8 °F 90.4 °F 66.2 °F 49% 29.93 in 10.0 mi SSE 3.5 mph - N/A   Clear
6:54 PM 84.2 °F 86.6 °F 66.2 °F 55% 29.93 in 10.0 mi SE 3.5 mph - N/A   Clear
7:13 PM 84.2 °F 85.6 °F 64.4 °F 51% 29.93 in 10.0 mi Calm Calm - N/A   Clear
7:33 PM 84.2 °F 86.6 °F 66.2 °F 55% 29.92 in 10.0 mi ESE 4.6 mph - N/A   Clear
7:54 PM 84.2 °F 87.3 °F 68.0 °F 58% 29.92 in 10.0 mi ESE 3.5 mph - N/A   Clear
8:13 PM 84.2 °F 86.6 °F 66.2 °F 55% 29.92 in 10.0 mi SE 3.5 mph - N/A   Clear
8:34 PM 82.4 °F 84.6 °F 66.2 °F 58% 29.91 in 10.0 mi SE 5.8 mph - N/A   Clear
8:53 PM 82.4 °F 84.6 °F 66.2 °F 58% 29.91 in 10.0 mi ESE 3.5 mph - N/A   Clear
9:13 PM 78.8 °F - 69.8 °F 74% 29.91 in 10.0 mi East 6.9 mph - N/A   Clear
9:34 PM 78.8 °F - 69.8 °F 74% 29.92 in 10.0 mi East 5.8 mph - N/A   Clear
9:53 PM 78.8 °F - 68.0 °F 69% 29.92 in 10.0 mi East 5.8 mph - N/A   Clear
10:13 PM 75.2 °F - 68.0 °F 78% 29.93 in 10.0 mi East 4.6 mph - N/A   Clear
10:34 PM 75.2 °F - 66.2 °F 73% 29.94 in 10.0 mi East 5.8 mph - N/A   Clear
10:53 PM 75.2 °F - 66.2 °F 73% 29.94 in 10.0 mi East 6.9 mph - N/A   Clear
11:13 PM 75.2 °F - 66.2 °F 73% 29.93 in 10.0 mi ESE 5.8 mph - N/A   Clear
11:33 PM 75.2 °F - 66.2 °F 73% 29.92 in 10.0 mi ESE 8.1 mph - N/A   Clear
11:53 PM 75.2 °F - 66.2 °F 73% 29.92 in 10.0 mi East 6.9 mph - N/A   Clear